Flag for U.S.A. Weather past 2 weeks in Cleveland, Ohio, U.S.A.

Now
40 °F

Passing clouds.


Feels Like: 33 °F
Forecast: 39 / 51 °F
Wind: 12 mph from Northeast

Location: Cleveland-Hopkins International Airport


UV Index: 5 (Moderate)

Visibility: 8 mi


Pressure: 30.37 "Hg

Humidity: 83%

Dew point: 35 °F

Location of ClevelandLocation

Historic Weather in Cleveland

°F

Cleveland temperature yesterday

Maximum temperature yesterday: 64 °F (at 2:51 PM)
Minimum temperature yesterday: 46 °F (at 5:51 AM)
Average temperature yesterday: 55 °F

Past Weeks' High & Low Weather Summary

 TemperatureHumidityPressure
High78 °F (Apr 13, 4:51 PM)93% (Apr 4, 6:51 AM)30.53 "Hg (Apr 4, 6:51 AM)
Low25 °F (Apr 16, 6:51 AM)27% (Apr 12, 3:51 PM)29.37 "Hg (Apr 8, 1:51 AM)
Average50 °F58%29.99 "Hg
* Reported Apr 4 2:01 AM — Apr 19 2:51 AM, Cleveland, Weather by CustomWeather, © 2014

Note: Actual official high and low records may vary slightly from our data, if they occured in-between our weather recording intervals... More about our weather records

Advertising

Historic Weather Conditions — Data for Previous 24 hours

 ConditionsComfort  
Time TempWeatherWind HumidityBarometerVisibility
2:51 AM
Apr 19
40 °FPassing clouds.12 mph80%30.36 "Hg9 mi
1:51 AM46 °FClear.14 mph77%30.34 "Hg9 mi
12:51 AM48 °FClear.8 mph74%30.33 "Hg9 mi
11:51 PM
Apr 18
51 °FPassing clouds.8 mph66%30.31 "Hg10 mi
10:51 PM50 °FPassing clouds.6 mph71%30.30 "Hg9 mi
9:51 PM50 °FPassing clouds.14 mph71%30.29 "Hg10 mi
8:51 PM50 °FPartly sunny.12 mph63%30.28 "Hg10 mi
7:51 PM55 °FPartly sunny.8 mph57%30.26 "Hg10 mi
6:51 PM60 °FScattered clouds.10 mph47%30.25 "Hg10 mi
5:51 PM63 °FPartly sunny.8 mph43%30.26 "Hg10 mi
4:51 PM63 °FMostly cloudy.9 mph43%30.26 "Hg10 mi
3:51 PM63 °FMostly cloudy.10 mph43%30.27 "Hg10 mi
2:51 PM64 °FMostly cloudy.No wind41%30.28 "Hg10 mi
1:51 PM62 °FScattered clouds.3 mph44%30.29 "Hg10 mi
12:51 PM60 °FScattered clouds.12 mph46%30.31 "Hg10 mi
11:51 AM60 °FMostly cloudy.7 mph41%30.30 "Hg10 mi
10:51 AM57 °FMostly cloudy.5 mph44%30.31 "Hg10 mi
9:51 AM56 °FMostly cloudy.9 mph42%30.31 "Hg10 mi
8:51 AM52 °FMostly cloudy.6 mph45%30.31 "Hg10 mi
7:51 AM52 °FPartly sunny.10 mph41%30.30 "Hg10 mi
6:51 AM51 °FPartly cloudy.8 mph42%30.29 "Hg10 mi
5:51 AM46 °FPassing clouds.9 mph54%30.28 "Hg10 mi
4:51 AM49 °FPassing clouds.12 mph48%30.27 "Hg10 mi
Weather by CustomWeather, © 2014

See weather overview